www.pogodaiklimat.ru

Погода и климат >> Архив погоды >> Россия >> Дагестан >> Изберг


ПОГОДА в Изберге

  • Прогноз погоды в Изберге
  • Монитор погоды в Изберге
  • Климат города

АРХИВ ПОГОДЫ в Изберге

Время (UTC), дата Ветер
(напр.,м/с)
 
Видим.   Явления Облачность Т
(С)
Тd
(С)
f
(%)
Тe
(С)
Тes
(С)
Комфортность P
(гПа)
Po
(гПа)
Тmin
(С)
Tmax
(С)
R
(мм)
R24
(мм)
S
(см)
15 17.06 ЮВ 6 50 км 3/1 600 м
[Cu med, cong Ac trans]
+20.2 +14.1 68 +22 +23 комфорт 1014.3 1016.5 +21.6 0.5
18 17.06 Ю 2 20 км 4/0
[Ac trans Ci fib]
+17.6 +14.0 79 +18 +18 1014.6 1016.8
21 17.06 ЮЗ 2 20 км ясно +15.4 +13.2 87 +15 +15 1013.4 1015.6
00 18.06 ЮЗ 3 20 км ясно +14.5 +11.6 83 +14 +14 1011.9 1014.1
03 18.06 ЮВ 2 50 км 8/0
[Ci]
+17.7 +13.1 74 +18 +20 1012.0 1014.1 +13.8
06 18.06 ЮВ 8-10
{11}
20 км 8/1 600 м
[Cu med, cong Ac cast Ci sp]
+20.9 +15.8 73 +24 +25 комфорт 1011.2 1013.3
09 18.06 ЮВ 9-11
{11}
20 км 6/3 600 м
[Cu med, cong Ac trans Ci fib]
+22.1 +16.1 69 +26 +27 душно 1010.7 1012.8
12 18.06 В 8
{11}
20 км 10/8 600 м
[Cb calv Ac trans]
+20.8 +17.0 79 +24 +24 комфорт 1010.2 1012.3
15 18.06 В 5 20 км 10/6 600 м
[Cb calv Ac trans]
+20.2 +17.0 82 +23 +23 комфорт 1010.4 1012.5 +22.3
18 18.06 ЮВ 2 20 км 10/10 600 м
[Cb calv]
+19.8 +16.6 82 +23 +23 комфорт 1011.3 1013.4
21 18.06 ЮЗ 3 20 км ясно +16.9 +15.2 90 +17 +17 1010.3 1012.5
00 19.06 ЮЗ 3 20 км 8/0
[Ac As Ci fib]
+16.6 +14.7 89 +16 +16 1009.7 1011.9
03 19.06 ЮЗ 2 20 км 3/1 600 м
[Cu hum Ci fib]
+18.5 +14.9 80 +20 +21 1009.6 1011.7 +15.9
06 19.06 СВ 2 50 км 8/1 600 м
[Cu hum Ac lent Ci fib]
+22.0 +17.1 74 +26 +34 душно 1009.3 1011.4
09 19.06 С 3 50 км 8/1 600 м
[Cu hum Ac trans Ci fib]
+23.0 +15.9 64 +27 +36 душно 1008.4 1010.5
12 19.06 С 4 50 км 9/0
[Ac trans Ci fib]
+22.7 +16.6 68 +27 +33 душно 1008.3 1010.4
15 19.06 СЗ 3 50 км 10/0
[Ac As]
+21.9 +14.5 63 +25 +25 комфорт 1008.3 1010.4 +23.4
18 19.06 З 2 20 км 8/3 600 м
[Cu hum Ac und]
+21.9 +14.5 63 +25 +25 комфорт 1008.3 1011.2
21 19.06 СЗ 4 20 км 8/1 600 м
[Cu hum Ac und]
+21.0 +14.8 68 +24 +24 комфорт 1008.9 1011.0
00 20.06 З 2 20 км в посл. час ливневой дождь 10/10 600 м
[Cb calv]
+19.7 +17.9 89 +23 +23 комфорт 1008.1 1010.2
03 20.06 З 1 20 км 8/3 600 м
[Cu hum Ac und]
+21.2 +16.6 75 +25 +26 комфорт 1007.8 1009.9 +19.2 0.8
06 20.06 СВ 2 50 км 6/1 600 м
[Cu hum Ac lent Ci fib]
+23.4 +16.3 64 +28 +37 душно 1007.0 1009.0
09 20.06 СВ 4 50 км 3/1 600 м
[Cu med, cong Ci fib]
+23.2 +16.1 64 +28 +39 душно 1005.9 1008.0
12 20.06 С 5 50 км 6/1 600 м
[Cu med, cong Ac trans Cc]
+22.9 +16.9 69 +28 +32 душно 1005.3 1007.4
15 20.06 СЗ 2 50 км 10/8 600 м
[Cb calv Ac trans Ci fib]
+21.7 +17.2 76 +26 +26 душно 1007.0 1009.0 +23.9
18 20.06 СЗ 3
{12}
20 км {гроза} 8/6 600 м
[Cb calv Ci fib]
+19.3 +16.3 83 +21 +21 комфорт 1007.0 1009.1
21 20.06 СВ 1 20 км 10/4 600 м
[Cu hum Ac trans]
+19.8 +16.0 79 +23 +23 комфорт 1005.9 1008.0
00 21.06 З 2 20 км 9/3 600 м
[Cu hum Ac und]
+19.3 +15.8 80 +22 +22 комфорт 1006.8 1008.9
03 21.06 СЗ 4 50 км 10/8 600 м
[Cu hum Ac trans Ci fib]
+20.6 +17.4 82 +24 +24 комфорт 1007.2 1009.3 +18.9 8
06 21.06 СЗ 6-11
{13}
20 км 8/8 600 м
[Cu hum Ac trans]
+21.8 +13.6 60 +25 +26 комфорт 1008.2 1010.3
09 21.06 С 8-11
{12}
50 км 3/1 600 м
[Cu hum Ac trans Ci fib]
+23.0 +16.7 68 +28 +31 душно 1008.1 1010.2
12 21.06 С 4
{11}
50 км 6/1 600 м
[Cu hum Ac trans Ci fib]
+23.3 +17.6 70 +29 +34 душно 1008.2 1010.3
15 21.06 С 3 20 км 3/1 600 м
[Cu hum Ac lent]
+24.2 +15.7 59 +27 +28 жарко 1007.9 1010.0 +25.1
18 21.06 ЮЗ 3 20 км 3/1 600 м
[Cu hum Ci fib]
+20.3 +15.8 75 +23 +23 комфорт 1008.9 1011.0
21 21.06 ЮЗ 3 20 км ясно +18.5 +14.1 76 +19 +19 1008.7 1010.8
00 22.06 ЮЗ 3 20 км 6/3 600 м
[Cu hum Ac trans]
+19.3 +13.8 70 +21 +21 комфорт 1008.3 1010.4
03 22.06 ЮЗ 2 50 км 10/6 600 м
[Cu hum Ac trans]
+21.2 +15.4 69 +24 +25 комфорт 1008.9 1011.0 +18.2
06 22.06 В 2 50 км 10/1 600 м
[Cu med, cong Ac trans Ci]
+25.9 +15.1 51 +29 +35 душно 1009.1 1011.2
09 22.06 ЮВ 2 50 км 10/3 600 м
[Cu med, cong Ac und]
+25.0 +16.8 60 +29 +33 душно 1008.9 1011.0
12 22.06 ЮВ 3 50 км 10/4 600 м
[Cb calv Ac und]
+24.0 +18.2 70 +28 +30 душно 1008.8 1010.9
15 22.06 ЮЗ 3 50 км 10/6 600 м
[Cb calv Ac trans]
+23.8 +16.3 63 +27 +27 жарко 1008.7 1010.8 +26.6
18 22.06 ЮЗ 3 20 км 8/3 600 м
[Cu hum Ac trans Ci fib]
+22.2 +16.6 71 +27 +27 душно 1009.8 1011.9
21 22.06 СЗ 8-11
{14}
20 км 9/4 600 м
[Cu hum Ac und]
+20.9 +17.2 79 +24 +24 комфорт 1012.4 1014.5
00 23.06 штиль 0
{11}
20 км {ливн. осадки} 9/6 600 м
[Cu hum Ac trans]
+21.1 +15.2 69 +24 +24 комфорт 1011.6 1013.7
03 23.06 ЮЗ 1 20 км 8/1 600 м
[Cu hum Ac und]
+21.6 +16.3 72 +25 +26 комфорт 1012.5 1014.6 +19.7 0.3
06 23.06 С 6 20 км 4/1 600 м
[Cu hum Ac trans]
+23.7 +16.9 66 +27 +31 жарко 1013.4 1015.5
09 23.06 В 2 20 км 8/3 600 м
[Cu med, cong Ac trans Ci sp]
+24.8 +17.4 63 +29 +38 душно 1013.7 1015.8
12 23.06 В 2 20 км в посл. час гроза 9/5 600 м
[Cb calv Ac trans Ci fib]
+25.7 +11.8 42 +27 +31 жарко 1013.6 1015.6
15 23.06 ЮЗ 2 50 км 9/8 600 м
[Cb calv Ac trans]
+23.6 +17.3 68 +27 +28 жарко 1013.4 1015.5 +25.9
18 23.06 З 2 10 км слабый ливневой дождь 10/10 600 м
[Cb cap]
+20.1 +16.1 78 +23 +23 комфорт 1015.6 1017.7
21 23.06 ЮЗ 2 20 км в посл. час ливневой дождь 8/8 600 м
[Cu hum]
+18.4 +15.5 83 +19 +19 1014.3 1016.4
00 24.06 ЮЗ 3 20 км {ливн. осадки} 4/1 600 м
[Cu hum Ci]
+17.3 +13.7 79 +17 +17 1013.9 1016.1
03 24.06 ЮЗ 3 50 км 3/0
[Ci fib]
+19.6 +13.9 70 +22 +23 комфорт 1013.2 1015.3 +16.8 2
06 24.06 В 6 50 км ясно +22.9 +17.2 70 +28 +33 душно 1012.5 1014.6
09 24.06 ЮВ 8-10
{11}
50 км 1/1 600 м
[Cu hum]
+24.3 +17.5 66 +28 +32 душно 1011.3 1013.4
12 24.06 ЮВ 6
{11}
50 км 1/1 600 м
[Cu hum]
+24.1 +18.1 69 +28 +32 душно 1010.1 1012.2

 

Местоположение метеостанции Изберг (Дагестан, Россия): широта 42.53 долгота 47.92 высота над уровнем моря -16 м.

В архиве по умолчанию представлена погода в Изберге за последнюю неделю. Архивные данные за месяц целиком и за предыдущие месяцы, начиная с января 2011 года, Вы можете получить, выбрав интересующий диапазон дат из раскрывающегося списка и нажав кнопку "Ввод!".

Внимание! Время в таблицах - всемирное. Для получения местного времени необходимо прибавить поправку, которая в Изберге равна 3 ч.

Смотрите также архив погоды в соседних городах и на ближайших метеорологических станциях:

Погода в Сергокале (Дагестан, Россия) (22 км)
Погода в Дербенте (Дагестан, Россия) (60 км)
Погода в Махачкале (Дагестан, Россия) (65 км)
Погода в Куппе (Дагестан, Россия) (68 км)
Погода в Буйнакске (Дагестан, Россия) (73 км)
Погода в Гунибе (Дагестан, Россия) (79 км)
Погода в Кумухе (Дагестан, Россия) (80 км)
Погода в Касумкенте (Дагестан, Россия) (98 км)
Погода в Хунзахе (Дагестан, Россия) (100 км)
Погода в Ахты (Дагестан, Россия) (119 км)

Пояснения к столбцам:

Ветер - указаны скорость ветра в м/с - средняя за 10 мин, порывы в срок и между сроками (в фигурных скобках) и направление, откуда дует ветер: С - северный, СВ - северо-восточный, В - восточный, ЮВ - юго-восточный, Ю - южный, ЮЗ - юго-западный, З - западный, СЗ - северо-западный.
Видимость - горизонтальная дальность видимости в метрах или километрах. При видимости от 1 до 10 км при отсутствии осадков обычно наблюдается дымка, при ухудшении видимости до 1 км и менее - туман. В сухую погоду видимость может ухудшаться дымом, пылью или мглою.
Явления - указаны атмосферные явления, наблюдавшиеся в срок или в последний час перед сроком; фигурными скобками обозначены явления, наблюдавшиеся между сроками (за 1-3 часа до срока); квадратными скобками обозначены град или гололедные отложения с указанием их диаметра в мм.
Облачность - указаны через наклонную черту общая и нижняя облачность в баллах и высота нижней границы облаков в метрах; квадратными скобками обозначены формы облаков: Ci - перистые, Cs - перисто-слоистые, Cc - перисто-кучевые, Ac - высококучевые, As - высокослоистые, Sc - слоисто-кучевые, Ns - слоисто-дождевые, Cu - кучевые, Cb - кучево-дождевые. Подробнее классификацию облаков см. в Атласе облаков (PDF).
T - Температура воздуха - температура, измеренная на высоте 2 м над землей.
Td - Температура точки росы - температура, при понижении до которой содержащийся в воздухе водяной пар достигнет насыщения.
f - Относительная влажность воздуха - влажноcть воздуха, измеренная на высоте 2 м над землей.
Te - Эффективная температура - температура, которую ощущает одетый по сезону человек в тени. Характеристика душности погоды. При расчете учитывается влияние влажности воздуха и скорости ветра на теплоощущения человека.
Tes - Эффективная температура на солнце - температура, которую ощущает человек, с поправкой на солнечный нагрев. Характеристика знойности погоды. Зависит от высоты солнца над горизонтом, облачности и скорости ветра. Ночью, в пасмурную погоду, а также при ветре 12 м/с и более поправка равна нулю.
P - Атмосферное давление - приведенное к уровню моря атмосферное давление.
Po - Атмосферное давление - измеренное на уровне метеостанции атмосферное давление.
Tmin - Минимальная температура - минимум температуры воздуха на высоте 2 м над землей.
Tmax - Максимальная температура - максимум температуры воздуха на высоте 2 м над землей.
R - Количество осадков - Количество выпавших осадков за период времени, мм. При наведении курсора мыши на число - период времени, за который выпало указанное количество осадков.
R24 - Количество осадков - Количество выпавших осадков за 24 часа, мм.
S - Снежный покров - Высота снежного покрова, см. При наведении курсора мыши на число - состояние снежного покрова и степень покрытия местности в баллах.